Time,TemperatureF,DewpointF,PressureIn,WindDirection,WindDirectionDegrees,WindSpeedMPH,WindSpeedGustMPH,Humidity,HourlyPrecipIn,Conditions,Clouds,dailyrainin,SolarRadiationWatts/m^2,SoftwareType,DateUTC
2013-03-02 00:00:00,32.3,23.6,29.95,WNW,302,4.0,4.0,70,0.00,,,0.00,0,Wunderground v.1.15,2013-03-02 05:00:00,
2013-03-02 00:01:00,32.2,23.5,29.95,NNW,344,5.0,6.0,70,0.00,,,0.00,0,Wunderground v.1.15,2013-03-02 05:01:00,
2013-03-02 00:02:00,32.2,23.5,29.95,North,355,5.0,6.0,70,0.00,,,0.00,0,Wunderground v.1.15,2013-03-02 05:02:00,
2013-03-02 00:03:00,32.2,23.5,29.95,North,355,5.0,6.0,70,0.00,,,0.00,0,Wunderground v.1.15,2013-03-02 05:03:00,
2013-03-02 00:09:00,32.2,23.8,29.95,NNE,19,5.0,6.0,71,0.00,,,0.00,0,Wunderground v.1.15,2013-03-02 05:09:00,
2013-03-02 00:15:00,32.0,23.3,29.95,WNW,293,4.0,8.0,70,0.00,,,0.00,0,Wunderground v.1.15,2013-03-02 05:15:00,
2013-03-02 00:20:00,31.9,23.6,29.95,NW,307,5.0,5.0,71,0.00,,,0.00,0,Wunderground v.1.15,2013-03-02 05:20:00,
2013-03-02 00:26:00,31.7,23.4,29.95,NNW,333,4.0,7.0,71,0.00,,,0.00,0,Wunderground v.1.15,2013-03-02 05:26:00,
2013-03-02 00:31:00,31.7,23.4,29.95,NNW,329,4.0,5.0,71,0.00,,,0.00,0,Wunderground v.1.15,2013-03-02 05:31:00,
2013-03-02 01:05:00,31.4,23.4,29.95,WNW,294,4.0,5.0,72,0.00,,,0.00,0,Wunderground v.1.15,2013-03-02 06:05:00,
2013-03-02 01:11:00,31.3,23.3,29.95,NW,306,5.0,8.0,72,0.00,,,0.00,0,Wunderground v.1.15,2013-03-02 06:11:00,
2013-03-02 01:16:00,31.2,23.2,29.95,West,279,5.0,8.0,72,0.00,,,0.00,0,Wunderground v.1.15,2013-03-02 06:16:00,
2013-03-02 01:22:00,31.1,23.5,29.95,NNW,328,5.0,6.0,73,0.00,,,0.00,0,Wunderground v.1.15,2013-03-02 06:22:00,
2013-03-02 01:28:00,31.1,23.5,29.95,NW,309,5.0,6.0,73,0.00,,,0.00,0,Wunderground v.1.15,2013-03-02 06:28:00,
2013-03-02 01:33:00,31.0,23.0,29.95,NW,317,5.0,6.0,72,0.00,,,0.00,0,Wunderground v.1.15,2013-03-02 06:33:00,
2013-03-02 01:39:00,31.0,23.0,29.95,NNW,337,6.0,6.0,72,0.00,,,0.00,0,Wunderground v.1.15,2013-03-02 06:39:00,
2013-03-02 01:45:00,31.0,23.0,29.95,WNW,286,6.0,8.0,72,0.00,,,0.00,0,Wunderground v.1.15,2013-03-02 06:45:00,
2013-03-02 01:51:00,31.0,23.0,29.94,WNW,289,6.0,6.0,72,0.00,,,0.00,0,Wunderground v.1.15,2013-03-02 06:51:00,
2013-03-02 01:57:00,31.0,22.7,29.94,WNW,294,5.0,6.0,71,0.00,,,0.00,0,Wunderground v.1.15,2013-03-02 06:57:00,
2013-03-02 02:03:00,30.9,22.9,29.94,WNW,301,5.0,5.0,72,0.00,,,0.00,0,Wunderground v.1.15,2013-03-02 07:03:00,
2013-03-02 02:09:00,30.9,22.6,29.94,NNW,344,4.0,7.0,71,0.00,,,0.00,0,Wunderground v.1.15,2013-03-02 07:09:00,
2013-03-02 02:14:00,30.9,22.6,29.94,NW,319,4.0,6.0,71,0.00,,,0.00,0,Wunderground v.1.15,2013-03-02 07:14:00,
2013-03-02 02:20:00,30.9,22.9,29.94,NW,311,4.0,5.0,72,0.00,,,0.00,0,Wunderground v.1.15,2013-03-02 07:20:00,
2013-03-02 02:26:00,30.8,22.5,29.93,WNW,302,4.0,6.0,71,0.00,,,0.00,0,Wunderground v.1.15,2013-03-02 07:26:00,
2013-03-02 02:32:00,30.7,22.4,29.93,NW,309,5.0,5.0,71,0.00,,,0.00,0,Wunderground v.1.15,2013-03-02 07:32:00,
2013-03-02 02:37:00,30.6,22.3,29.93,NW,305,5.0,8.0,71,0.00,,,0.00,0,Wunderground v.1.15,2013-03-02 07:37:00,
2013-03-02 02:43:00,30.5,22.2,29.93,North,351,6.0,10.0,71,0.00,,,0.00,0,Wunderground v.1.15,2013-03-02 07:43:00,
2013-03-02 02:49:00,30.5,22.2,29.93,West,274,7.0,10.0,71,0.00,,,0.00,0,Wunderground v.1.15,2013-03-02 07:49:00,
2013-03-02 02:55:00,30.5,22.2,29.93,NW,317,6.0,8.0,71,0.00,,,0.00,0,Wunderground v.1.15,2013-03-02 07:55:00,
2013-03-02 03:00:00,30.4,22.1,29.93,WNW,285,7.0,8.0,71,0.00,,,0.00,0,Wunderground v.1.15,2013-03-02 08:00:00,
2013-03-02 03:06:00,30.4,22.1,29.93,NW,308,7.0,8.0,71,0.00,,,0.00,0,Wunderground v.1.15,2013-03-02 08:06:00,
2013-03-02 03:12:00,30.4,22.4,29.94,WNW,290,5.0,5.0,72,0.00,,,0.00,0,Wunderground v.1.15,2013-03-02 08:12:00,
2013-03-02 03:17:00,30.4,22.4,29.94,WNW,300,5.0,5.0,72,0.00,,,0.00,0,Wunderground v.1.15,2013-03-02 08:17:00,
2013-03-02 03:23:00,30.4,22.4,29.94,NW,306,5.0,5.0,72,0.00,,,0.00,0,Wunderground v.1.15,2013-03-02 08:23:00,
2013-03-02 03:28:00,30.3,22.4,29.93,NNW,340,6.0,7.0,72,0.00,,,0.00,0,Wunderground v.1.15,2013-03-02 08:28:00,
2013-03-02 03:34:00,30.3,22.4,29.93,NW,306,5.0,6.0,72,0.00,,,0.00,0,Wunderground v.1.15,2013-03-02 08:34:00,
2013-03-02 03:40:00,30.2,21.9,29.93,WNW,294,5.0,7.0,71,0.00,,,0.00,0,Wunderground v.1.15,2013-03-02 08:40:00,
2013-03-02 03:45:00,30.3,22.4,29.93,WNW,295,5.0,7.0,72,0.00,,,0.00,0,Wunderground v.1.15,2013-03-02 08:45:00,
2013-03-02 03:51:00,30.2,22.3,29.93,NW,319,5.0,8.0,72,0.00,,,0.00,0,Wunderground v.1.15,2013-03-02 08:51:00,
2013-03-02 03:56:00,30.2,22.3,29.93,WNW,293,6.0,10.0,72,0.00,,,0.00,0,Wunderground v.1.15,2013-03-02 08:56:00,
2013-03-02 04:02:00,30.2,22.3,29.93,WNW,302,5.0,6.0,72,0.00,,,0.00,0,Wunderground v.1.15,2013-03-02 09:02:00,
2013-03-02 04:08:00,30.1,22.2,29.93,NW,315,6.0,7.0,72,0.00,,,0.00,0,Wunderground v.1.15,2013-03-02 09:08:00,
2013-03-02 04:14:00,30.1,22.2,29.93,WNW,298,6.0,8.0,72,0.00,,,0.00,0,Wunderground v.1.15,2013-03-02 09:14:00,
2013-03-02 04:19:00,30.1,22.2,29.93,WNW,302,6.0,8.0,72,0.00,,,0.00,0,Wunderground v.1.15,2013-03-02 09:19:00,
2013-03-02 04:24:00,30.1,22.2,29.93,WNW,292,5.0,7.0,72,0.00,,,0.00,0,Wunderground v.1.15,2013-03-02 09:24:00,
2013-03-02 04:30:00,30.1,22.2,29.93,WNW,292,5.0,8.0,72,0.00,,,0.00,0,Wunderground v.1.15,2013-03-02 09:30:00,
2013-03-02 04:36:00,30.0,22.1,29.93,NW,311,6.0,12.0,72,0.00,,,0.00,0,Wunderground v.1.15,2013-03-02 09:36:00,
2013-03-02 04:42:00,30.0,22.1,29.93,NW,311,6.0,6.0,72,0.00,,,0.00,0,Wunderground v.1.15,2013-03-02 09:42:00,
2013-03-02 04:47:00,29.9,22.3,29.93,NNW,343,6.0,9.0,73,0.00,,,0.00,0,Wunderground v.1.15,2013-03-02 09:47:00,
2013-03-02 04:52:00,29.9,22.3,29.93,NNW,338,6.0,6.0,73,0.00,,,0.00,0,Wunderground v.1.15,2013-03-02 09:52:00,
2013-03-02 04:57:00,29.9,22.3,29.93,NNW,338,6.0,6.0,73,0.00,,,0.00,0,Wunderground v.1.15,2013-03-02 09:57:00,
2013-03-02 05:02:00,29.9,22.3,29.93,WNW,284,6.0,7.0,73,0.00,,,0.00,0,Wunderground v.1.15,2013-03-02 10:02:00,
2013-03-02 05:07:00,29.9,22.3,29.93,NW,306,5.0,7.0,73,0.00,,,0.00,0,Wunderground v.1.15,2013-03-02 10:07:00,
2013-03-02 05:13:00,29.8,22.2,29.93,WNW,299,5.0,8.0,73,0.00,,,0.00,0,Wunderground v.1.15,2013-03-02 10:13:00,
2013-03-02 05:19:00,29.9,22.3,29.93,WNW,289,5.0,8.0,73,0.00,,,0.00,0,Wunderground v.1.15,2013-03-02 10:19:00,
2013-03-02 05:25:00,29.8,22.5,29.93,NW,319,6.0,7.0,74,0.00,,,0.00,0,Wunderground v.1.15,2013-03-02 10:25:00,
2013-03-02 05:31:00,29.7,22.4,29.93,WNW,290,6.0,6.0,74,0.00,,,0.00,0,Wunderground v.1.15,2013-03-02 10:31:00,
2013-03-02 05:37:00,29.7,22.7,29.93,NNW,336,6.0,7.0,75,0.00,,,0.00,0,Wunderground v.1.15,2013-03-02 10:37:00,
2013-03-02 05:42:00,29.7,22.7,29.94,NNW,344,6.0,6.0,75,0.00,,,0.00,0,Wunderground v.1.15,2013-03-02 10:42:00,
2013-03-02 05:47:00,29.6,22.6,29.94,WNW,286,6.0,7.0,75,0.00,,,0.00,0,Wunderground v.1.15,2013-03-02 10:47:00,
2013-03-02 05:53:00,29.6,23.0,29.93,NNW,332,5.0,8.0,76,0.00,,,0.00,0,Wunderground v.1.15,2013-03-02 10:53:00,
2013-03-02 05:58:00,29.4,22.8,29.93,NW,312,5.0,8.0,76,0.00,,,0.00,0,Wunderground v.1.15,2013-03-02 10:58:00,
2013-03-02 06:04:00,29.4,22.8,29.93,NW,319,6.0,8.0,76,0.00,,,0.00,0,Wunderground v.1.15,2013-03-02 11:04:00,
2013-03-02 06:10:00,29.4,23.1,29.93,WNW,299,5.0,5.0,77,0.00,,,0.00,0,Wunderground v.1.15,2013-03-02 11:10:00,
2013-03-02 06:16:00,29.4,22.8,29.93,West,277,5.0,5.0,76,0.00,,,0.00,0,Wunderground v.1.15,2013-03-02 11:16:00,
2013-03-02 06:22:00,29.4,23.1,29.93,NW,312,4.0,5.0,77,0.00,,,0.00,0,Wunderground v.1.15,2013-03-02 11:22:00,
2013-03-02 06:28:00,29.4,22.8,29.93,North,360,5.0,6.0,76,0.00,,,0.00,0,Wunderground v.1.15,2013-03-02 11:28:00,
2013-03-02 06:33:00,29.5,22.9,29.93,WNW,290,5.0,7.0,76,0.00,,,0.00,0,Wunderground v.1.15,2013-03-02 11:33:00,
2013-03-02 06:39:00,29.4,22.8,29.93,WNW,303,5.0,8.0,76,0.00,,,0.00,0,Wunderground v.1.15,2013-03-02 11:39:00,
2013-03-02 06:45:00,29.5,22.9,29.93,NW,304,5.0,6.0,76,0.00,,,0.00,5,Wunderground v.1.15,2013-03-02 11:45:00,
2013-03-02 06:51:00,29.5,22.6,29.93,NW,312,5.0,7.0,75,0.00,,,0.00,7,Wunderground v.1.15,2013-03-02 11:51:00,
2013-03-02 06:57:00,29.5,22.6,29.93,WNW,287,6.0,9.0,75,0.00,,,0.00,9,Wunderground v.1.15,2013-03-02 11:57:00,
2013-03-02 07:03:00,29.5,22.6,29.94,NNW,329,6.0,8.0,75,0.00,,,0.00,11,Wunderground v.1.15,2013-03-02 12:03:00,
2013-03-02 07:09:00,29.6,22.6,29.94,NW,325,5.0,8.0,75,0.00,,,0.00,12,Wunderground v.1.15,2013-03-02 12:09:00,
2013-03-02 07:15:00,29.6,22.6,29.94,West,265,4.0,6.0,75,0.00,,,0.00,14,Wunderground v.1.15,2013-03-02 12:15:00,
2013-03-02 07:21:00,29.6,22.6,29.94,NW,317,4.0,4.0,75,0.00,,,0.00,16,Wunderground v.1.15,2013-03-02 12:21:00,
2013-03-02 07:27:00,29.7,22.7,29.94,NW,326,3.0,6.0,75,0.00,,,0.00,16,Wunderground v.1.15,2013-03-02 12:27:00,
2013-03-02 07:33:00,29.7,22.4,29.94,NW,311,3.0,4.0,74,0.00,,,0.00,21,Wunderground v.1.15,2013-03-02 12:33:00,
2013-03-02 07:39:00,29.8,22.5,29.94,NW,325,3.0,5.0,74,0.00,,,0.00,23,Wunderground v.1.15,2013-03-02 12:39:00,
2013-03-02 07:44:00,29.8,22.5,29.94,NW,306,4.0,7.0,74,0.00,,,0.00,32,Wunderground v.1.15,2013-03-02 12:44:00,
2013-03-02 07:50:00,29.9,22.9,29.94,WNW,296,4.0,5.0,75,0.00,,,0.00,40,Wunderground v.1.15,2013-03-02 12:50:00,
2013-03-02 07:55:00,29.9,22.6,29.94,NW,316,4.0,5.0,74,0.00,,,0.00,46,Wunderground v.1.15,2013-03-02 12:55:00,
2013-03-02 08:00:00,29.9,22.3,29.94,NW,309,4.0,5.0,73,0.00,,,0.00,63,Wunderground v.1.15,2013-03-02 13:00:00,
2013-03-02 08:06:00,30.0,22.4,29.94,NNW,336,5.0,5.0,73,0.00,,,0.00,79,Wunderground v.1.15,2013-03-02 13:06:00,
2013-03-02 08:12:00,30.2,22.9,29.94,NNW,346,4.0,6.0,74,0.00,,,0.00,90,Wunderground v.1.15,2013-03-02 13:12:00,
2013-03-02 08:18:00,30.3,22.4,29.94,NW,322,4.0,6.0,72,0.00,,,0.00,97,Wunderground v.1.15,2013-03-02 13:18:00,
2013-03-02 08:24:00,30.3,22.7,29.94,NW,309,5.0,6.0,73,0.00,,,0.00,102,Wunderground v.1.15,2013-03-02 13:24:00,
2013-03-02 08:29:00,30.4,22.4,29.94,NW,316,5.0,6.0,72,0.00,,,0.00,102,Wunderground v.1.15,2013-03-02 13:29:00,
2013-03-02 08:35:00,30.4,22.1,29.94,NNW,342,5.0,7.0,71,0.00,,,0.00,113,Wunderground v.1.15,2013-03-02 13:35:00,
2013-03-02 08:41:00,30.6,22.6,29.94,WNW,290,5.0,11.0,72,0.00,,,0.00,118,Wunderground v.1.15,2013-03-02 13:41:00,
2013-03-02 08:46:00,30.5,22.2,29.94,North,350,6.0,11.0,71,0.00,,,0.00,118,Wunderground v.1.15,2013-03-02 13:46:00,
2013-03-02 08:52:00,30.6,22.3,29.94,NW,323,5.0,5.0,71,0.00,,,0.00,120,Wunderground v.1.15,2013-03-02 13:52:00,
2013-03-02 08:57:00,30.7,22.1,29.94,NNW,342,4.0,8.0,70,0.00,,,0.00,121,Wunderground v.1.15,2013-03-02 13:57:00,
2013-03-02 09:03:00,30.8,22.2,29.94,NNW,327,5.0,7.0,70,0.00,,,0.00,128,Wunderground v.1.15,2013-03-02 14:03:00,
2013-03-02 09:08:00,30.9,21.9,29.94,WNW,286,5.0,10.0,69,0.00,,,0.00,105,Wunderground v.1.15,2013-03-02 14:08:00,
2013-03-02 09:14:00,30.8,21.8,29.94,NW,320,6.0,11.0,69,0.00,,,0.00,104,Wunderground v.1.15,2013-03-02 14:14:00,
2013-03-02 09:20:00,30.8,21.8,29.94,NW,325,6.0,6.0,69,0.00,,,0.00,113,Wunderground v.1.15,2013-03-02 14:20:00,
2013-03-02 09:26:00,31.0,22.0,29.94,NW,307,6.0,8.0,69,0.00,,,0.00,144,Wunderground v.1.15,2013-03-02 14:26:00,
2013-03-02 09:31:00,30.9,21.9,29.94,NW,311,6.0,6.0,69,0.00,,,0.00,209,Wunderground v.1.15,2013-03-02 14:31:00,
2013-03-02 09:37:00,31.2,22.2,29.93,North,355,6.0,7.0,69,0.00,,,0.00,239,Wunderground v.1.15,2013-03-02 14:37:00,
2013-03-02 09:43:00,31.3,22.3,29.93,West,277,6.0,9.0,69,0.00,,,0.00,255,Wunderground v.1.15,2013-03-02 14:43:00,
2013-03-02 09:49:00,31.5,22.1,29.93,West,277,6.0,9.0,68,0.00,,,0.00,209,Wunderground v.1.15,2013-03-02 14:49:00,
2013-03-02 09:54:00,31.5,22.1,29.93,WNW,302,7.0,9.0,68,0.00,,,0.00,239,Wunderground v.1.15,2013-03-02 14:54:00,
2013-03-02 10:00:00,31.5,22.1,29.93,WNW,301,7.0,7.0,68,0.00,,,0.00,232,Wunderground v.1.15,2013-03-02 15:00:00,
2013-03-02 10:06:00,31.5,22.1,29.93,West,276,7.0,11.0,68,0.00,,,0.00,207,Wunderground v.1.15,2013-03-02 15:06:00,
2013-03-02 10:12:00,31.5,22.1,29.93,WNW,294,8.0,9.0,68,0.00,,,0.00,236,Wunderground v.1.15,2013-03-02 15:12:00,
2013-03-02 10:18:00,31.6,22.2,29.93,NNW,330,8.0,10.0,68,0.00,,,0.00,276,Wunderground v.1.15,2013-03-02 15:18:00,
2013-03-02 10:24:00,31.8,22.1,29.92,West,267,8.0,10.0,67,0.00,,,0.00,381,Wunderground v.1.15,2013-03-02 15:24:00,
2013-03-02 10:30:00,32.4,22.3,29.92,NW,316,7.0,7.0,66,0.00,,,0.00,371,Wunderground v.1.15,2013-03-02 15:30:00,
2013-03-02 10:35:00,32.3,22.2,29.92,West,268,7.0,9.0,66,0.00,,,0.00,346,Wunderground v.1.15,2013-03-02 15:35:00,
2013-03-02 10:41:00,32.5,22.4,29.92,NW,319,6.0,7.0,66,0.00,,,0.00,288,Wunderground v.1.15,2013-03-02 15:41:00,
2013-03-02 10:47:00,32.3,21.5,29.92,WNW,284,7.0,9.0,64,0.00,,,0.00,237,Wunderground v.1.15,2013-03-02 15:47:00,
2013-03-02 10:53:00,32.5,22.4,29.92,WNW,284,7.0,7.0,66,0.00,,,0.00,287,Wunderground v.1.15,2013-03-02 15:53:00,
2013-03-02 10:59:00,32.6,21.8,29.92,NW,322,6.0,12.0,64,0.00,,,0.00,353,Wunderground v.1.15,2013-03-02 15:59:00,
2013-03-02 11:05:00,32.7,22.2,29.92,NW,325,7.0,9.0,65,0.00,,,0.00,390,Wunderground v.1.15,2013-03-02 16:05:00,
2013-03-02 11:11:00,33.0,22.5,29.92,WNW,288,7.0,7.0,65,0.00,,,0.00,302,Wunderground v.1.15,2013-03-02 16:11:00,
2013-03-02 11:16:00,33.0,22.5,29.92,NW,317,6.0,10.0,65,0.00,,,0.00,346,Wunderground v.1.15,2013-03-02 16:16:00,
2013-03-02 11:22:00,32.9,22.0,29.92,WNW,300,7.0,7.0,64,0.00,,,0.00,388,Wunderground v.1.15,2013-03-02 16:22:00,
2013-03-02 11:27:00,33.0,22.5,29.91,WNW,301,7.0,10.0,65,0.00,,,0.00,383,Wunderground v.1.15,2013-03-02 16:27:00,
2013-03-02 11:33:00,33.6,22.7,29.91,WNW,291,6.0,9.0,64,0.00,,,0.00,385,Wunderground v.1.15,2013-03-02 16:33:00,
2013-03-02 11:38:00,33.7,22.4,29.91,WNW,296,6.0,9.0,63,0.00,,,0.00,301,Wunderground v.1.15,2013-03-02 16:38:00,
2013-03-02 11:44:00,33.8,22.1,29.91,NNW,329,6.0,10.0,62,0.00,,,0.00,279,Wunderground v.1.15,2013-03-02 16:44:00,
2013-03-02 11:50:00,33.5,22.2,29.91,NNE,19,7.0,7.0,63,0.00,,,0.00,232,Wunderground v.1.15,2013-03-02 16:50:00,
2013-03-02 11:56:00,33.5,22.2,29.90,WNW,284,7.0,9.0,63,0.00,,,0.00,246,Wunderground v.1.15,2013-03-02 16:56:00,
2013-03-02 12:01:00,33.5,22.2,29.90,WNW,290,6.0,7.0,63,0.00,,,0.00,244,Wunderground v.1.15,2013-03-02 17:01:00,
2013-03-02 12:07:00,33.6,22.0,29.90,West,263,6.0,10.0,62,0.00,,,0.00,214,Wunderground v.1.15,2013-03-02 17:07:00,
2013-03-02 12:13:00,33.6,22.3,29.90,WNW,286,6.0,7.0,63,0.00,,,0.00,183,Wunderground v.1.15,2013-03-02 17:13:00,
2013-03-02 12:18:00,33.6,22.3,29.90,NNW,336,7.0,10.0,63,0.00,,,0.00,169,Wunderground v.1.15,2013-03-02 17:18:00,
2013-03-02 12:24:00,33.5,22.2,29.90,West,273,7.0,9.0,63,0.00,,,0.00,169,Wunderground v.1.15,2013-03-02 17:24:00,
2013-03-02 12:30:00,33.8,22.1,29.90,NNW,340,7.0,8.0,62,0.00,,,0.00,172,Wunderground v.1.15,2013-03-02 17:30:00,
2013-03-02 12:36:00,33.8,22.5,29.90,NW,314,7.0,8.0,63,0.00,,,0.00,195,Wunderground v.1.15,2013-03-02 17:36:00,
2013-03-02 12:42:00,33.7,22.1,29.89,WNW,298,7.0,7.0,62,0.00,,,0.00,200,Wunderground v.1.15,2013-03-02 17:42:00,
2013-03-02 12:47:00,33.8,22.1,29.89,North,355,7.0,9.0,62,0.00,,,0.00,199,Wunderground v.1.15,2013-03-02 17:47:00,
2013-03-02 12:53:00,33.9,22.6,29.89,NE,36,6.0,8.0,63,0.00,,,0.00,199,Wunderground v.1.15,2013-03-02 17:53:00,
2013-03-02 12:59:00,34.0,22.7,29.89,WNW,295,6.0,11.0,63,0.00,,,0.00,199,Wunderground v.1.15,2013-03-02 17:59:00,
2013-03-02 13:05:00,33.7,22.4,29.89,NW,309,7.0,11.0,63,0.00,,,0.00,223,Wunderground v.1.15,2013-03-02 18:05:00,
2013-03-02 13:11:00,33.9,22.2,29.89,NW,320,7.0,8.0,62,0.00,,,0.00,241,Wunderground v.1.15,2013-03-02 18:11:00,
2013-03-02 13:17:00,33.9,22.2,29.88,North,355,7.0,8.0,62,0.00,,,0.00,294,Wunderground v.1.15,2013-03-02 18:17:00,
2013-03-02 13:23:00,33.9,22.2,29.88,WNW,294,7.0,8.0,62,0.00,,,0.00,246,Wunderground v.1.15,2013-03-02 18:23:00,
2013-03-02 13:28:00,34.1,22.8,29.88,West,280,8.0,8.0,63,0.00,,,0.00,295,Wunderground v.1.15,2013-03-02 18:28:00,
2013-03-02 13:34:00,34.1,22.8,29.88,West,270,8.0,8.0,63,0.00,,,0.00,288,Wunderground v.1.15,2013-03-02 18:34:00,
2013-03-02 13:39:00,34.1,22.4,29.88,NNW,331,8.0,10.0,62,0.00,,,0.00,262,Wunderground v.1.15,2013-03-02 18:39:00,
2013-03-02 13:44:00,34.0,22.3,29.88,WNW,282,7.0,9.0,62,0.00,,,0.00,294,Wunderground v.1.15,2013-03-02 18:44:00,
2013-03-02 13:50:00,34.1,22.4,29.88,NNW,338,8.0,8.0,62,0.00,,,0.00,336,Wunderground v.1.15,2013-03-02 18:50:00,
2013-03-02 13:55:00,34.3,22.2,29.88,NW,321,7.0,10.0,61,0.00,,,0.00,322,Wunderground v.1.15,2013-03-02 18:55:00,
2013-03-02 14:00:00,34.3,22.2,29.88,WNW,288,6.0,6.0,61,0.00,,,0.00,304,Wunderground v.1.15,2013-03-02 19:00:00,
2013-03-02 14:06:00,34.5,22.4,29.88,North,360,6.0,7.0,61,0.00,,,0.00,269,Wunderground v.1.15,2013-03-02 19:06:00,
2013-03-02 14:12:00,34.4,22.3,29.88,NNW,344,6.0,7.0,61,0.00,,,0.00,287,Wunderground v.1.15,2013-03-02 19:12:00,
2013-03-02 14:18:00,34.6,22.5,29.88,North,9,5.0,7.0,61,0.00,,,0.00,274,Wunderground v.1.15,2013-03-02 19:18:00,
2013-03-02 14:24:00,34.5,22.4,29.88,West,275,4.0,7.0,61,0.00,,,0.00,241,Wunderground v.1.15,2013-03-02 19:24:00,
2013-03-02 14:30:00,34.4,22.7,29.88,NNE,13,5.0,5.0,62,0.00,,,0.00,197,Wunderground v.1.15,2013-03-02 19:30:00,
2013-03-02 14:36:00,34.3,23.0,29.88,NW,326,5.0,7.0,63,0.00,,,0.00,167,Wunderground v.1.15,2013-03-02 19:36:00,
2013-03-02 14:42:00,34.1,22.4,29.87,NW,321,6.0,7.0,62,0.00,,,0.00,188,Wunderground v.1.15,2013-03-02 19:42:00,
2013-03-02 14:48:00,34.1,22.4,29.88,NNW,331,7.0,9.0,62,0.00,,,0.00,236,Wunderground v.1.15,2013-03-02 19:48:00,
2013-03-02 14:54:00,34.1,22.8,29.88,NNW,335,7.0,8.0,63,0.00,,,0.00,264,Wunderground v.1.15,2013-03-02 19:54:00,
2013-03-02 14:59:00,34.3,23.4,29.88,NNW,336,5.0,8.0,64,0.00,,,0.00,265,Wunderground v.1.15,2013-03-02 19:59:00,
2013-03-02 15:04:00,34.4,22.3,29.87,NE,41,5.0,8.0,61,0.00,,,0.00,272,Wunderground v.1.15,2013-03-02 20:04:00,
2013-03-02 15:10:00,34.6,22.9,29.87,WNW,299,5.0,7.0,62,0.00,,,0.00,227,Wunderground v.1.15,2013-03-02 20:10:00,
2013-03-02 15:16:00,34.7,22.2,29.87,WNW,294,5.0,9.0,60,0.00,,,0.00,199,Wunderground v.1.15,2013-03-02 20:16:00,
2013-03-02 15:21:00,34.8,22.3,29.87,NW,326,5.0,5.0,60,0.00,,,0.00,200,Wunderground v.1.15,2013-03-02 20:21:00,
2013-03-02 15:27:00,34.9,22.4,29.87,NNW,330,4.0,5.0,60,0.00,,,0.00,174,Wunderground v.1.15,2013-03-02 20:27:00,
2013-03-02 15:33:00,35.0,22.1,29.87,NW,313,4.0,7.0,59,0.00,,,0.00,148,Wunderground v.1.15,2013-03-02 20:33:00,
2013-03-02 15:38:00,34.8,21.9,29.87,North,355,4.0,7.0,59,0.00,,,0.00,142,Wunderground v.1.15,2013-03-02 20:38:00,
2013-03-02 15:44:00,34.7,21.8,29.87,NW,322,6.0,10.0,59,0.00,,,0.00,172,Wunderground v.1.15,2013-03-02 20:44:00,
2013-03-02 15:49:00,34.4,21.9,29.87,NW,313,7.0,11.0,60,0.00,,,0.00,151,Wunderground v.1.15,2013-03-02 20:49:00,
2013-03-02 15:54:00,34.2,21.7,29.87,NW,318,8.0,9.0,60,0.00,,,0.00,153,Wunderground v.1.15,2013-03-02 20:54:00,
2013-03-02 16:00:00,34.3,21.8,29.87,NNW,329,7.0,7.0,60,0.00,,,0.00,171,Wunderground v.1.15,2013-03-02 21:00:00,
2013-03-02 16:06:00,34.4,21.9,29.87,NNW,329,7.0,11.0,60,0.00,,,0.00,165,Wunderground v.1.15,2013-03-02 21:06:00,
2013-03-02 16:11:00,34.2,21.7,29.87,WNW,291,7.0,8.0,60,0.00,,,0.00,139,Wunderground v.1.15,2013-03-02 21:11:00,
2013-03-02 16:17:00,34.3,21.8,29.87,NW,305,7.0,8.0,60,0.00,,,0.00,98,Wunderground v.1.15,2013-03-02 21:17:00,
2013-03-02 16:22:00,34.1,22.0,29.87,NW,322,7.0,8.0,61,0.00,,,0.00,91,Wunderground v.1.15,2013-03-02 21:22:00,
2013-03-02 16:28:00,34.2,21.7,29.87,WNW,303,6.0,9.0,60,0.00,,,0.00,79,Wunderground v.1.15,2013-03-02 21:28:00,
2013-03-02 16:33:00,34.2,21.7,29.87,NW,317,5.0,6.0,60,0.00,,,0.00,77,Wunderground v.1.15,2013-03-02 21:33:00,
2013-03-02 16:38:00,34.1,21.7,29.87,NW,323,5.0,6.0,60,0.00,,,0.00,69,Wunderground v.1.15,2013-03-02 21:38:00,
2013-03-02 16:44:00,34.2,22.1,29.87,NNW,345,5.0,7.0,61,0.00,,,0.00,58,Wunderground v.1.15,2013-03-02 21:44:00,
2013-03-02 16:49:00,34.1,22.0,29.87,NNW,338,6.0,7.0,61,0.00,,,0.00,56,Wunderground v.1.15,2013-03-02 21:49:00,
2013-03-02 16:54:00,34.1,22.0,29.87,NW,308,6.0,6.0,61,0.00,,,0.00,47,Wunderground v.1.15,2013-03-02 21:54:00,
2013-03-02 17:00:00,34.1,21.7,29.87,NW,326,6.0,6.0,60,0.00,,,0.00,39,Wunderground v.1.15,2013-03-02 22:00:00,
2013-03-02 17:05:00,34.1,22.0,29.87,WNW,298,5.0,7.0,61,0.00,,,0.00,32,Wunderground v.1.15,2013-03-02 22:05:00,
2013-03-02 17:11:00,34.0,22.0,29.87,WNW,296,5.0,8.0,61,0.00,,,0.00,25,Wunderground v.1.15,2013-03-02 22:11:00,
2013-03-02 17:17:00,34.0,22.3,29.88,NNW,336,5.0,8.0,62,0.00,,,0.00,18,Wunderground v.1.15,2013-03-02 22:17:00,
2013-03-02 17:23:00,34.0,22.0,29.88,West,275,5.0,11.0,61,0.00,,,0.00,12,Wunderground v.1.15,2013-03-02 22:23:00,
2013-03-02 17:29:00,33.9,22.2,29.88,NW,317,6.0,11.0,62,0.00,,,0.00,7,Wunderground v.1.15,2013-03-02 22:29:00,
2013-03-02 17:34:00,33.9,22.2,29.88,NW,320,6.0,7.0,62,0.00,,,0.00,7,Wunderground v.1.15,2013-03-02 22:34:00,
2013-03-02 17:40:00,33.8,21.8,29.88,NNW,328,5.0,5.0,61,0.00,,,0.00,5,Wunderground v.1.15,2013-03-02 22:40:00,
2013-03-02 17:46:00,33.7,22.1,29.88,NNE,13,5.0,6.0,62,0.00,,,0.00,5,Wunderground v.1.15,2013-03-02 22:46:00,
2013-03-02 17:52:00,33.7,22.4,29.89,NW,311,5.0,5.0,63,0.00,,,0.00,0,Wunderground v.1.15,2013-03-02 22:52:00,
2013-03-02 17:57:00,33.4,22.1,29.89,NW,323,5.0,7.0,63,0.00,,,0.00,0,Wunderground v.1.15,2013-03-02 22:57:00,
2013-03-02 18:03:00,33.3,22.1,29.89,WNW,291,6.0,6.0,63,0.00,,,0.00,0,Wunderground v.1.15,2013-03-02 23:03:00,
2013-03-02 18:08:00,33.2,22.3,29.89,WNW,289,5.0,6.0,64,0.00,,,0.00,0,Wunderground v.1.15,2013-03-02 23:08:00,
2013-03-02 18:14:00,33.1,22.2,29.89,North,11,4.0,5.0,64,0.00,,,0.00,0,Wunderground v.1.15,2013-03-02 23:14:00,
2013-03-02 18:19:00,33.0,22.1,29.89,NNW,343,4.0,5.0,64,0.00,,,0.00,0,Wunderground v.1.15,2013-03-02 23:19:00,
2013-03-02 18:25:00,33.0,22.1,29.89,NW,314,4.0,7.0,64,0.00,,,0.00,0,Wunderground v.1.15,2013-03-02 23:25:00,
2013-03-02 18:30:00,32.9,22.0,29.89,WNW,303,5.0,5.0,64,0.00,,,0.00,0,Wunderground v.1.15,2013-03-02 23:30:00,
2013-03-02 18:36:00,32.8,22.3,29.90,WNW,300,5.0,7.0,65,0.00,,,0.00,0,Wunderground v.1.15,2013-03-02 23:36:00,
2013-03-02 18:42:00,32.5,22.8,29.90,NW,311,6.0,8.0,67,0.00,,,0.00,0,Wunderground v.1.15,2013-03-02 23:42:00,
2013-03-02 18:48:00,32.1,23.1,29.90,NNE,13,6.0,8.0,69,0.00,,,0.00,0,Wunderground v.1.15,2013-03-02 23:48:00,
2013-03-02 18:54:00,31.8,23.1,29.90,West,274,6.0,8.0,70,0.00,,,0.00,0,Wunderground v.1.15,2013-03-02 23:54:00,
2013-03-02 19:00:00,31.7,22.7,29.91,NNW,327,5.0,5.0,69,0.00,,,0.00,0,Wunderground v.1.15,2013-03-03 00:00:00,
2013-03-02 19:05:00,31.6,22.9,29.91,NNW,327,5.0,5.0,70,0.00,,,0.00,0,Wunderground v.1.15,2013-03-03 00:05:00,
2013-03-02 19:11:00,31.6,22.6,29.91,NW,323,5.0,7.0,69,0.00,,,0.00,0,Wunderground v.1.15,2013-03-03 00:11:00,
2013-03-02 19:17:00,31.6,22.6,29.91,NNW,346,5.0,7.0,69,0.00,,,0.00,0,Wunderground v.1.15,2013-03-03 00:17:00,
2013-03-02 19:22:00,31.5,22.5,29.91,WNW,294,5.0,8.0,69,0.00,,,0.00,0,Wunderground v.1.15,2013-03-03 00:22:00,
2013-03-02 19:28:00,31.4,22.7,29.91,NW,320,6.0,8.0,70,0.00,,,0.00,0,Wunderground v.1.15,2013-03-03 00:28:00,
2013-03-02 19:33:00,31.4,22.7,29.91,North,355,5.0,6.0,70,0.00,,,0.00,0,Wunderground v.1.15,2013-03-03 00:33:00,
2013-03-02 19:38:00,31.2,22.5,29.91,WNW,299,5.0,7.0,70,0.00,,,0.00,0,Wunderground v.1.15,2013-03-03 00:38:00,
2013-03-02 19:44:00,31.0,22.7,29.91,NNW,338,7.0,8.0,71,0.00,,,0.00,0,Wunderground v.1.15,2013-03-03 00:44:00,
2013-03-02 19:50:00,30.8,22.8,29.91,NW,320,6.0,6.0,72,0.00,,,0.00,0,Wunderground v.1.15,2013-03-03 00:50:00,
2013-03-02 19:55:00,30.8,22.8,29.91,West,281,5.0,6.0,72,0.00,,,0.00,0,Wunderground v.1.15,2013-03-03 00:55:00,
2013-03-02 20:01:00,30.8,22.8,29.91,West,280,5.0,6.0,72,0.00,,,0.00,0,Wunderground v.1.15,2013-03-03 01:01:00,
2013-03-02 20:07:00,30.8,22.8,29.91,NW,307,4.0,6.0,72,0.00,,,0.00,0,Wunderground v.1.15,2013-03-03 01:07:00,
2013-03-02 20:13:00,30.7,22.7,29.91,NW,321,3.0,4.0,72,0.00,,,0.00,0,Wunderground v.1.15,2013-03-03 01:13:00,
2013-03-02 20:18:00,30.7,22.7,29.91,NNW,345,3.0,5.0,72,0.00,,,0.00,0,Wunderground v.1.15,2013-03-03 01:18:00,
2013-03-02 20:24:00,30.8,23.2,29.91,West,278,2.0,5.0,73,0.00,,,0.00,0,Wunderground v.1.15,2013-03-03 01:24:00,
2013-03-02 20:29:00,30.7,23.1,29.91,NW,313,3.0,5.0,73,0.00,,,0.00,0,Wunderground v.1.15,2013-03-03 01:29:00,
2013-03-02 20:35:00,30.7,22.7,29.91,NNW,344,3.0,4.0,72,0.00,,,0.00,0,Wunderground v.1.15,2013-03-03 01:35:00,
2013-03-02 20:40:00,30.7,22.7,29.91,NW,323,2.0,2.0,72,0.00,,,0.00,0,Wunderground v.1.15,2013-03-03 01:40:00,
2013-03-02 20:46:00,30.7,22.7,29.91,NNW,327,2.0,2.0,72,0.00,,,0.00,0,Wunderground v.1.15,2013-03-03 01:46:00,
2013-03-02 20:52:00,30.7,22.4,29.91,NW,305,2.0,3.0,71,0.00,,,0.00,0,Wunderground v.1.15,2013-03-03 01:52:00,
2013-03-02 20:58:00,30.8,22.5,29.92,NNW,333,2.0,3.0,71,0.00,,,0.00,0,Wunderground v.1.15,2013-03-03 01:58:00,
2013-03-02 21:04:00,30.8,22.8,29.92,NW,308,2.0,5.0,72,0.00,,,0.00,0,Wunderground v.1.15,2013-03-03 02:04:00,
2013-03-02 21:10:00,30.7,22.4,29.92,NW,313,2.0,4.0,71,0.00,,,0.00,0,Wunderground v.1.15,2013-03-03 02:10:00,
2013-03-02 21:16:00,30.7,22.4,29.92,WNW,300,2.0,4.0,71,0.00,,,0.00,0,Wunderground v.1.15,2013-03-03 02:16:00,
2013-03-02 21:22:00,30.8,22.5,29.92,NW,316,2.0,2.0,71,0.00,,,0.00,0,Wunderground v.1.15,2013-03-03 02:22:00,
2013-03-02 21:27:00,30.8,22.5,29.92,West,276,3.0,6.0,71,0.00,,,0.00,0,Wunderground v.1.15,2013-03-03 02:27:00,
2013-03-02 21:33:00,30.8,22.2,29.92,NW,319,3.0,5.0,70,0.00,,,0.00,0,Wunderground v.1.15,2013-03-03 02:33:00,
2013-03-02 21:39:00,30.7,21.7,29.92,North,355,4.0,6.0,69,0.00,,,0.00,0,Wunderground v.1.15,2013-03-03 02:39:00,
2013-03-02 21:45:00,30.7,22.1,29.92,WNW,290,4.0,6.0,70,0.00,,,0.00,0,Wunderground v.1.15,2013-03-03 02:45:00,
2013-03-02 21:51:00,30.5,21.5,29.92,NW,309,5.0,5.0,69,0.00,,,0.00,0,Wunderground v.1.15,2013-03-03 02:51:00,
2013-03-02 21:56:00,30.4,21.4,29.92,NW,321,5.0,9.0,69,0.00,,,0.00,0,Wunderground v.1.15,2013-03-03 02:56:00,
2013-03-02 22:02:00,30.3,21.3,29.92,NW,309,5.0,8.0,69,0.00,,,0.00,0,Wunderground v.1.15,2013-03-03 03:02:00,
2013-03-02 22:08:00,30.2,21.6,29.92,WNW,298,5.0,8.0,70,0.00,,,0.00,0,Wunderground v.1.15,2013-03-03 03:08:00,
2013-03-02 22:14:00,30.1,21.5,29.92,NW,325,6.0,8.0,70,0.00,,,0.00,0,Wunderground v.1.15,2013-03-03 03:14:00,
2013-03-02 22:19:00,30.0,21.4,29.92,NW,317,5.0,8.0,70,0.00,,,0.00,0,Wunderground v.1.15,2013-03-03 03:19:00,
2013-03-02 22:25:00,29.9,21.3,29.91,North,360,5.0,6.0,70,0.00,,,0.00,0,Wunderground v.1.15,2013-03-03 03:25:00,
2013-03-02 22:31:00,29.9,21.6,29.92,NNW,344,5.0,5.0,71,0.00,,,0.00,0,Wunderground v.1.15,2013-03-03 03:31:00,
2013-03-02 22:37:00,29.9,21.6,29.91,North,355,4.0,7.0,71,0.00,,,0.00,0,Wunderground v.1.15,2013-03-03 03:37:00,
2013-03-02 22:42:00,29.8,21.5,29.91,NNW,348,4.0,5.0,71,0.00,,,0.00,0,Wunderground v.1.15,2013-03-03 03:42:00,
2013-03-02 22:48:00,29.7,21.4,29.91,WNW,295,4.0,7.0,71,0.00,,,0.00,0,Wunderground v.1.15,2013-03-03 03:48:00,
2013-03-02 22:54:00,29.6,21.3,29.91,NNW,335,5.0,5.0,71,0.00,,,0.00,0,Wunderground v.1.15,2013-03-03 03:54:00,
2013-03-02 23:00:00,29.5,21.6,29.92,NW,326,4.0,4.0,72,0.00,,,0.00,0,Wunderground v.1.15,2013-03-03 04:00:00,
2013-03-02 23:06:00,29.4,21.8,29.91,NNW,338,5.0,6.0,73,0.00,,,0.00,0,Wunderground v.1.15,2013-03-03 04:06:00,
2013-03-02 23:12:00,29.2,21.9,29.91,NE,43,5.0,6.0,74,0.00,,,0.00,0,Wunderground v.1.15,2013-03-03 04:12:00,
2013-03-02 23:18:00,29.1,22.5,29.91,NW,319,4.0,8.0,76,0.00,,,0.00,0,Wunderground v.1.15,2013-03-03 04:18:00,
2013-03-02 23:24:00,29.0,22.4,29.92,NW,311,4.0,5.0,76,0.00,,,0.00,0,Wunderground v.1.15,2013-03-03 04:24:00,
2013-03-02 23:29:00,28.9,22.3,29.92,WNW,286,4.0,5.0,76,0.00,,,0.00,0,Wunderground v.1.15,2013-03-03 04:29:00,
2013-03-02 23:35:00,28.9,22.3,29.91,NNW,340,4.0,5.0,76,0.00,,,0.00,0,Wunderground v.1.15,2013-03-03 04:35:00,
2013-03-02 23:40:00,28.8,22.5,29.91,NE,52,3.0,3.0,77,0.00,,,0.00,0,Wunderground v.1.15,2013-03-03 04:40:00,
2013-03-02 23:46:00,28.8,22.2,29.91,NW,319,3.0,5.0,76,0.00,,,0.00,0,Wunderground v.1.15,2013-03-03 04:46:00,
2013-03-02 23:51:00,28.7,21.8,29.91,WNW,300,4.0,5.0,75,0.00,,,0.00,0,Wunderground v.1.15,2013-03-03 04:51:00,
2013-03-02 23:57:00,28.6,21.4,29.91,NW,320,5.0,8.0,74,0.00,,,0.00,0,Wunderground v.1.15,2013-03-03 04:57:00,